Torna al catalogo

STARLINK-31054

AttivoComunicazioniVLEO
NORAD 58619·PAYLOAD·🇺🇸 United States

Lanciato Dec 23, 2023 da Cape Canaveral Space Force Station

Loading…

Prossimi Passaggi (prossime 24 ore)

TLE

AggiornatoSource: CelesTrak SupGP

Epoca: Sep 15, 2026, 02:27 UTC

1 58619C 23203B   26258.10256944 -.00003931  00000+0 -14235-3 0  2586
2 58619  43.0017  77.5362 0001463 269.0604 245.5737 15.27585268    10

Traccia STARLINK-31054 in tempo reale con AllMySat

Download on the App Store